CAPE
0 1 4 32 18 33 59 82 76 65 75 63 25 49 32 14 1 0 0 0 1 0 3 0 0 0 0 0 0 0 0 0 1 0 0 0 0 0 0 0 0 0 0
0 2 13 6 29 28 31 35 56 64 55 45 29 20 21 24 21 12 0 0 4 0 5 0 0 0 0 0 0 0 0 0 0 0 0 0 0 0 0 0 0 0 0
1 39 8 20 36 28 39 34 18 47 25 17 12 11 9 8 8 16 14 10 9 0 0 0 0 0 0 0 0 0 0 0 1 0 0 0 0 0 0 0 0 0 0
0 20 38 43 46 32 19 3 0 0 0 0 0 0 1 2 0 0 0 7 1 0 0 0 0 0 0 0 0 0 0 0 0 0 0 0 0 0 0 0 0 0 0
0 0 26 57 28 2 0 0 0 0 0 0 0 0 0 0 0 0 4 0 0 0 0 0 0 0 0 0 0 0 0 0 0 0 0 0 1 1 0 0 2 0 0
0 4 19 2 0 0 0 0 0 0 0 0 0 0 0 0 0 0 0 0 0 0 0 0 0 0 0 0 0 0 0 0 0 0 0 0 1 2 0 0 1 0 1
0 0 0 0 0 0 0 0 0 0 0 0 0 0 0 0 0 0 0 0 0 0 0 0 0 0 0 0 0 0 0 0 0 0 0 0 0 0 0 0 1 0 0
0 0 0 0 0 0 0 0 0 0 0 0 0 0 0 0 0 0 0 0 0 0 0 0 1 0 0 0 0 0 0 0 0 0 0 0 0 1 0 0 0 1 0
0 0 0 0 0 0 0 0 0 0 0 0 0 1 1 0 0 0 0 0 0 1 1 0 0 0 0 0 0 0 0 0 0 0 1 1 0 0 0 0 0 0 0
0 0 0 0 0 0 0 0 0 0 0 0 0 1 1 1 1 1 0 0 1 1 0 0 0 0 0 0 0 0 0 0 0 0 1 0 1 1 0 0 0 0 0
0 0 0 0 0 0 0 0 2 1 2 2 0 1 1 1 1 1 0 0 0 0 0 0 0 0 0 0 0 0 0 0 0 0 0 0 0 0 0 0 0 0 0
0 0 0 0 0 0 0 2 2 1 2 0 1 1 0 0 0 0 0 0 0 0 0 0 0 0 0 0 0 0 0 0 0 0 0 0 0 0 0 0 0 0 0
0 0 0 0 0 0 2 1 1 2 1 2 1 0 0 0 0 0 0 1 0 1 0 0 0 1 0 0 0 0 0 0 0 0 0 0 0 0 0 0 0 0 0
0 0 0 0 0 2 0 0 0 0 0 1 0 0 0 0 0 0 1 1 0 0 0 0 0 0 0 0 0 0 0 0 0 0 0 0 0 0 0 0 0 0 0
0 1 1 1 2 1 0 0 0 0 0 0 0 0 0 0 0 0 0 0 1 0 0 0 0 0 0 0 0 0 0 0 0 0 0 0 0 0 0 0 0 0 0
1 2 2 1 1 1 0 0 1 0 0 0 0 0 0 0 0 0 0 1 0 0 0 0 0 0 0 0 0 0 0 0 0 0 0 0 0 0 0 0 0 0 0
0 0 0 0 0 0 1 0 1 2 0 0 0 0 0 0 0 0 0 0 0 0 0 1 0 0 0 0 0 0 0 0 0 0 0 0 0 0 0 0 0 0 0
0 0 0 0 0 1 0 1 0 1 3 2 0 0 0 0 0 0 0 0 0 0 0 0 1 2 0 0 0 0 0 0 0 0 0 1 0 0 0 0 0 0 0
0 0 0 0 0 0 0 0 0 0 0 0 0 0 0 0 0 0 0 0 0 0 0 0 1 0 0 0 0 0 0 0 0 0 0 0 0 0 0 0 0 0 0
0 0 0 0 0 0 0 0 0 0 0 0 0 0 0 0 0 0 0 0 1 3 2 0 0 0 1 0 0 1 2 0 0 1 0 0 0 0 0 0 0 0 0
0 0 0 0 0 0 0 0 0 0 0 0 0 0 0 0 0 0 0 2 0 0 0 2 0 0 1 1 0 0 1 0 0 0 0 0 0 0 0 0 0 0 0
0 1 0 0 0 0 0 0 0 0 0 0 0 0 0 0 0 0 1 2 4 0 0 1 0 0 0 0 1 3 3 2 0 1 2 2 1 1 0 0 0 0 0
0 0 0 0 0 0 0 0 0 0 0 0 0 0 0 0 0 1 1 1 0 1 0 2 1 0 2 1 1 1 3 3 0 1 2 0 0 1 0 1 0 1 0
0 0 0 0 0 0 1 1 0 0 0 0 0 0 0 0 0 1 1 0 0 1 2 2 4 7 0 0 0 4 6 2 0 0 0 0 0 0 0 0 0 0 0
0 0 0 0 0 0 0 0 0 0 0 0 0 0 0 1 0 0 0 0 0 0 4 0 4 0 0 0 2 1 0 0 0 0 0 0 1 0 0 0 0 0 0
0 0 0 0 0 0 0 0 0 0 0 0 0 0 1 1 2 0 0 0 0 1 0 1 3 0 0 0 0 0 0 0 0 0 0 0 0 1 0 0 0 0 0
CIN
0 -50 -122 -89 -91 -69 -49 -33 -33 -43 -53 -70 -52 -99 -136 -28 -2 0 0 0 -7 0 -2 0 0 0 0 0 0 0 0 0 -12 0 0 0 0 0 0 0 0 0 0
0 -144 -95 -43 -54 -60 -66 -58 -72 -56 -86 -45 -51 -51 -42 -19 -16 -24 0 0 -3 -2 -1 -4 0 0 0 0 0 0 0 0 0 0 0 0 0 0 0 0 0 0 0
-21 -60 -71 -66 -45 -62 -51 -22 -35 -57 -54 -59 -67 -60 -38 -33 -34 -34 -49 -54 -5 0 0 0 0 0 0 0 0 0 0 0 -3 0 0 0 0 0 0 0 0 0 0
0 -51 -41 -53 -55 -50 -25 -21 0 0 0 0 0 0 -45 -70 -22 0 -1 -5 -8 0 0 0 0 0 0 0 0 0 0 0 0 0 0 0 0 0 0 0 0 0 0
0 -30 -60 -42 -60 -16 0 0 0 0 0 0 0 0 0 0 0 0 -23 -2 0 0 0 0 0 0 0 0 0 0 0 0 0 0 0 0 0 0 0 0 0 0 0
0 -101 -76 -124 0 0 0 0 0 0 0 0 0 0 0 0 0 0 0 0 0 0 0 0 0 0 0 0 0 0 0 0 0 0 0 0 0 0 0 0 0 0 0
0 0 0 0 0 0 0 0 0 0 0 0 0 0 0 0 0 0 0 0 0 0 0 0 0 0 0 0 0 0 0 0 0 0 0 0 0 0 0 0 0 0 0
0 0 0 0 0 0 0 0 0 0 0 0 0 0 0 0 0 0 0 0 0 0 0 0 0 0 0 0 0 0 0 0 0 0 0 0 0 0 0 0 0 0 0
0 0 0 0 0 0 0 0 0 0 0 0 0 0 0 0 0 0 0 0 0 0 0 0 0 0 0 0 0 0 0 0 0 0 0 0 0 0 0 0 0 0 0
0 0 0 0 0 0 0 0 0 0 0 0 0 0 0 0 0 0 0 0 0 0 0 0 0 0 0 0 -1 -1 0 0 -1 0 0 0 0 0 0 0 0 0 0
0 0 0 0 0 0 0 0 0 0 0 0 0 0 0 0 0 0 0 0 0 0 0 0 0 0 0 0 0 0 0 0 0 0 0 0 0 0 0 0 0 0 0
0 0 0 0 0 0 0 0 0 0 0 0 0 0 0 0 0 0 0 0 0 0 0 0 0 0 0 0 0 0 0 0 0 0 0 0 0 0 0 0 0 0 0
0 0 0 0 0 0 0 0 0 0 0 0 0 0 0 0 0 0 0 0 0 0 0 0 0 0 0 0 0 0 0 0 0 0 0 0 0 0 0 0 0 0 0
0 0 0 0 0 0 0 0 0 0 0 0 0 0 0 0 0 0 0 0 0 0 0 0 0 0 0 0 0 0 0 0 0 0 0 0 0 0 0 0 0 0 0
0 0 0 0 0 0 0 0 0 0 0 0 0 0 0 0 0 0 -1 -1 -1 0 0 0 0 0 0 0 0 0 0 0 0 0 0 0 0 0 0 0 0 0 0
0 0 0 0 0 0 0 0 0 0 0 0 0 0 0 0 0 0 0 -1 0 0 0 0 0 0 0 0 0 0 0 0 0 0 0 0 0 0 0 0 0 0 0
0 0 0 0 0 0 0 0 0 0 0 0 0 0 0 0 0 0 0 0 0 0 0 -10 0 0 0 0 0 0 0 0 0 0 0 0 0 0 0 0 0 0 0
0 0 0 0 0 0 0 0 0 0 0 0 0 0 0 0 0 0 0 0 0 0 -2 -5 -5 -4 0 0 0 0 0 0 0 0 -1 -4 0 0 0 0 0 0 0
0 0 0 0 0 0 0 0 0 0 0 0 0 -1 -1 -1 0 0 0 0 0 0 -1 -2 -5 -1 0 0 0 0 0 0 0 0 0 0 0 0 0 0 0 0 0
0 0 0 0 0 0 0 0 0 0 0 0 0 0 0 0 0 0 0 0 -2 -3 -5 -6 -1 -6 -2 0 0 -8 -7 0 0 -2 0 0 0 0 0 0 0 0 0
0 0 0 0 0 0 0 0 0 0 0 0 0 0 0 0 0 0 0 -5 0 -5 -7 -4 0 0 -10 -7 0 0 -3 0 0 -3 0 0 -7 0 0 0 0 0 0
0 0 0 0 0 0 0 0 0 0 0 0 0 0 -1 0 0 0 -4 -5 -3 0 0 -4 0 0 0 -5 -2 -5 -6 -6 0 -5 -3 -7 -6 -6 0 0 0 0 0
0 0 0 0 0 0 0 0 -2 0 0 0 0 0 0 0 0 -8 -6 -8 0 -6 0 -5 -7 0 -4 -3 -4 -7 -6 -5 -10 -3 -8 -2 -3 -5 0 -7 0 -9 0
0 0 0 0 0 0 -2 -2 -1 0 0 0 0 0 0 0 -3 -8 -7 -2 -10 -4 -8 -5 -5 -1 0 0 -1 -6 -4 -6 -1 0 0 0 0 -1 0 -1 0 -2 -1
-4 0 0 0 -1 -2 -3 0 0 0 -5 0 0 0 0 -3 -7 -11 0 0 0 0 -2 -6 -5 -3 0 -3 -9 -9 0 0 0 0 0 0 -4 -1 -2 -1 -7 -14 0
0 0 0 0 -2 -4 -1 0 0 0 0 -6 -4 -5 -4 -4 -4 -5 -4 0 0 -4 0 -5 -4 0 0 0 0 0 0 0 0 0 0 0 -3 -7 0 0 0 -3 0
Wind_Speed
8 9 10 10 11 12 14 14 14 14 14 14 15 15 16 19 19 20 21 22 20 20 20 21 21 22 24 26 25 25 26 27 31 27 22 14 14 14 14 13 14 15 16
12 12 13 14 16 15 15 15 15 16 17 17 18 18 19 20 21 21 21 19 19 21 22 20 21 21 23 25 25 26 25 24 25 23 17 15 15 12 11 12 15 15 15
12 13 14 16 17 16 17 17 17 19 20 19 19 21 22 22 23 21 20 21 22 23 23 21 21 20 23 24 24 27 26 24 21 20 20 16 16 14 13 14 16 13 13
15 15 17 16 16 17 16 17 19 20 22 21 20 22 23 24 23 22 22 23 23 24 23 24 22 22 24 26 24 26 26 26 25 21 18 17 16 14 14 17 17 15 14
17 17 18 16 17 17 17 19 21 22 23 24 25 26 27 26 25 25 25 24 22 21 22 23 21 21 23 24 25 26 26 24 24 23 20 18 20 18 19 18 18 16 16
17 17 16 16 17 18 17 19 21 23 24 26 28 29 27 24 25 26 26 22 21 20 20 20 21 21 24 24 25 25 25 26 26 24 22 21 21 19 17 16 17 16 19
17 17 16 16 17 17 18 20 23 24 25 27 28 27 26 25 26 26 24 21 19 20 20 19 20 20 21 22 24 24 24 25 24 25 25 22 22 19 17 18 18 18 19
18 17 16 17 17 18 20 22 23 25 26 27 27 25 24 24 24 22 20 19 19 20 20 21 20 21 23 24 25 25 26 26 27 25 26 27 24 19 18 19 19 19 17
17 16 18 18 19 20 21 21 23 24 25 25 24 23 22 21 21 20 18 18 19 20 20 22 21 22 25 25 26 24 25 27 26 25 24 23 22 19 18 17 18 19 18
17 19 19 19 19 20 21 22 23 23 23 22 22 22 20 20 19 19 18 18 19 20 21 22 22 23 25 25 25 25 24 25 25 24 23 22 20 18 17 18 15 12 11
15 17 19 20 20 20 21 22 22 21 21 21 21 20 19 18 17 18 19 19 18 19 20 21 22 23 23 23 24 23 22 21 22 21 20 20 18 18 18 16 13 9 10
16 18 19 19 20 21 22 21 20 20 20 20 20 20 18 17 17 19 20 19 18 17 18 19 20 20 21 21 20 19 18 17 17 17 17 16 15 15 15 14 13 13 14
16 17 18 19 19 20 22 21 20 19 19 18 18 18 18 16 17 18 18 17 18 16 16 16 17 18 18 19 17 17 17 16 15 14 14 13 12 12 11 12 11 11 12
17 18 19 20 20 20 20 20 19 19 18 17 17 16 15 14 15 16 16 15 15 15 15 16 16 16 18 17 17 16 16 14 13 13 13 12 11 10 10 11 10 10 11
18 18 18 19 19 20 22 22 19 20 17 16 15 14 13 13 13 13 12 12 12 12 14 16 17 17 17 16 16 17 17 17 15 14 12 12 11 10 9 9 8 9 10
18 18 19 20 20 20 19 21 20 18 17 16 14 13 14 11 10 11 11 12 11 11 13 15 15 15 16 15 15 14 14 15 15 14 13 12 11 10 9 8 8 8 7
16 17 19 20 18 17 16 16 18 18 16 15 14 12 11 10 10 11 11 11 11 12 13 14 15 14 14 13 13 12 12 12 12 12 11 11 11 10 10 9 9 8 8
18 19 19 19 17 16 14 12 12 12 13 14 12 11 10 10 10 10 11 12 12 13 15 13 14 13 13 13 13 13 13 13 12 12 12 11 10 10 10 9 9 9 9
16 16 16 16 15 13 10 9 10 12 11 10 10 10 10 10 11 10 10 13 12 12 14 14 13 13 12 12 12 12 12 12 11 12 12 12 11 11 10 9 9 9 8
9 7 7 6 5 5 6 9 10 10 8 8 8 8 9 10 10 10 9 11 12 12 12 12 11 11 10 11 12 12 12 12 12 12 11 12 12 13 12 11 11 11 13
7 6 6 6 6 5 6 7 7 6 6 7 7 8 9 9 10 10 10 11 12 12 12 12 13 13 13 12 11 10 10 10 10 11 11 11 12 13 12 12 12 11 14
7 7 7 6 6 6 6 6 6 6 6 7 8 8 8 9 10 10 11 12 14 15 13 13 12 12 11 10 10 10 10 10 10 10 10 9 9 10 10 10 10 12 11
7 7 6 6 6 6 6 6 6 6 6 7 7 8 8 9 9 11 11 12 12 13 15 13 13 12 13 13 12 11 10 10 10 10 10 10 10 9 9 9 9 10 10
7 7 7 6 6 5 5 6 6 6 6 6 7 8 8 9 10 11 11 12 13 12 13 13 13 13 13 13 13 13 12 12 11 11 10 10 9 10 10 11 11 12 13
7 6 6 5 5 5 5 5 6 6 6 6 6 7 8 8 9 10 11 11 11 11 12 12 12 13 13 13 13 13 12 12 12 11 10 11 10 10 12 12 12 12 12
6 6 6 6 5 5 5 5 5 5 5 5 6 7 7 8 9 9 10 11 11 11 12 12 12 12 12 13 13 12 11 11 11 11 11 11 11 11 11 12 13 14 12
Wind_Direction
330 335 337 332 326 323 320 321 322 326 327 327 326 329 331 328 328 330 329 328 326 327 324 325 325 325 321 315 315 313 309 305 299 304 302 296 295 299 298 303 307 308 307
326 324 325 322 320 317 315 315 318 319 320 322 323 326 326 325 324 323 324 327 323 321 320 320 321 321 320 317 314 314 314 313 307 304 306 297 298 306 304 303 304 306 307
315 319 319 319 316 315 313 314 317 316 315 319 323 325 324 325 324 323 324 322 320 319 319 319 319 319 318 318 317 313 314 314 312 305 302 300 302 302 304 308 308 311 316
313 314 316 316 316 317 317 316 316 317 317 320 324 323 324 324 324 322 320 319 317 317 319 317 317 318 317 316 316 316 313 311 310 305 298 294 294 301 301 296 299 302 306
312 314 316 317 321 324 324 320 319 320 321 323 323 323 324 324 327 325 320 319 320 319 319 318 320 321 321 319 315 316 316 312 310 307 298 292 291 290 291 295 295 297 302
311 314 322 323 321 322 322 319 319 321 323 322 323 324 326 328 327 325 322 319 319 317 317 318 321 322 321 318 317 317 317 312 309 305 303 290 289 287 291 288 288 291 296
313 317 320 322 323 324 323 321 320 322 324 323 324 326 327 328 329 326 325 326 324 323 322 320 320 324 325 324 321 318 318 316 314 307 301 299 289 287 287 286 284 285 293
317 318 322 323 324 325 323 321 322 323 323 324 327 329 328 328 331 333 333 331 330 329 328 327 324 324 325 323 319 316 315 314 313 309 304 300 299 291 285 286 285 287 295
313 312 317 320 320 320 321 322 324 324 327 330 333 332 331 333 336 334 333 332 330 329 331 330 329 326 323 322 317 315 314 313 313 309 308 307 305 298 291 287 283 283 287
310 309 315 320 324 323 324 324 325 327 330 334 335 335 335 336 339 337 335 335 331 330 330 332 332 328 326 324 320 317 314 316 316 314 308 303 303 302 301 297 286 281 284
315 319 321 322 324 326 325 325 326 330 333 335 334 337 339 342 343 341 340 337 335 333 333 334 335 335 334 332 329 324 321 322 319 320 319 309 304 298 298 304 305 279 283
316 319 322 325 326 327 327 329 331 332 333 332 334 336 337 341 343 341 339 340 340 340 341 344 344 345 344 344 344 342 340 339 332 328 326 319 313 303 300 303 304 300 300
318 322 325 327 329 329 326 328 331 331 331 332 334 336 337 341 345 345 344 345 345 351 356 360 4 2 4 8 14 6 355 356 357 355 351 344 330 315 309 303 304 311 311
314 317 321 324 326 329 331 330 327 327 328 332 334 336 343 348 349 350 350 357 7 10 15 15 22 20 22 31 35 33 22 15 15 11 5 5 2 341 315 307 308 309 305
312 314 319 324 327 328 330 328 326 327 330 331 334 341 346 349 353 359 2 10 18 25 25 18 23 19 23 37 40 40 47 40 27 26 24 8 360 359 350 348 337 324 313
312 314 317 321 323 324 329 329 327 327 334 337 342 349 351 8 24 22 18 18 29 35 25 10 14 16 18 25 33 43 51 50 51 55 43 36 28 17 13 10 6 359 353
310 313 314 313 317 321 324 326 318 324 334 334 346 3 17 29 40 42 37 29 27 24 18 12 2 8 13 17 23 28 32 39 50 55 54 55 47 32 17 356 348 357 2
315 313 314 313 315 315 319 323 326 329 326 335 352 13 30 46 48 44 38 28 23 14 7 14 11 9 8 7 5 3 5 2 359 5 10 12 17 17 9 4 359 357 353
325 324 324 320 318 317 323 330 330 326 340 1 13 23 52 52 48 43 47 26 29 24 19 19 19 17 14 13 10 5 1 356 352 347 342 341 344 344 346 353 353 357 0
356 3 8 18 24 17 350 326 324 332 1 17 35 48 58 50 43 41 51 39 35 33 33 30 36 37 34 29 22 15 6 360 351 346 343 339 333 332 334 335 334 330 325
37 53 80 80 87 24 347 348 352 14 28 31 47 59 69 57 56 56 60 45 37 40 41 38 37 32 35 40 36 36 33 23 13 1 355 344 335 333 332 329 330 326 321
47 84 91 77 44 23 2 12 34 49 45 48 57 65 77 69 67 64 59 50 41 39 48 45 51 50 60 61 55 56 53 47 39 27 25 24 14 0 0 353 348 340 340
37 49 52 43 17 18 32 45 62 58 42 39 56 61 77 90 78 68 59 56 52 51 44 57 61 66 65 58 55 52 49 47 47 40 33 31 26 23 19 18 16 3 358
21 51 74 40 40 26 42 61 66 59 53 48 53 60 81 85 66 61 59 58 55 60 60 64 63 65 66 64 55 46 38 40 41 32 32 30 25 13 12 2 4 360 358
2 12 18 34 47 28 11 29 45 44 32 45 53 59 84 74 57 54 54 54 55 68 71 70 67 68 69 67 64 48 47 45 40 39 31 21 13 3 347 349 354 356 352
12 9 5 355 350 355 358 350 9 18 21 24 39 60 71 63 57 54 52 56 67 69 70 74 70 69 68 64 63 63 55 40 31 26 22 9 3 358 353 347 346 347 349